Weather History for Florala, AL

Change the Weather History Date:

Saturday, March 22, 2014

  Actual Average (KCEW) Record (KCEW)
Temperature  
Mean Temperature 68 °F -  
Max Temperature 79 °F 71 °F 86 °F (1997)
Min Temperature 57 °F 45 °F 30 °F (1983)
Cooling Degree Days 3    
Growing Degree Days 18 (Base 50)    
Moisture  
Dew Point 56 °F    
Average Humidity 77    
Maximum Humidity 100    
Minimum Humidity 32    
Precipitation  
Precipitation 0.00 in - - ()
Sea Level Pressure  
Sea Level Pressure 30.05 in    
Wind  
Wind Speed 2 mph (SW)    
Max Wind Speed 7 mph    
Max Gust Speed -    
Visibility 5 miles    
Events Fog    
Averages and records for this station are not official NWS values.
T = Trace of Precipitation, MM = Missing Value Source: NWS Daily Summary

Daily Weather History Graph

Daily Weather History Graph

Search for Another Location

Airport:

Trip Planner

Search our weather history database for the weather conditions in past years. The results will help you decide how hot, cold, wet, or windy it might be!

Date:

Astronomy

Mar. 22, 2014 Rise Set
Actual Time 6:46 AM CDT 6:58 PM CDT
Civil Twilight 6:22 AM CDT 7:22 PM CDT
Nautical Twilight 5:54 AM CDT 7:50 PM CDT
Astronomical Twilight 5:25 AM CDT 8:18 PM CDT
Moon No Moon Rise 10:48 AM CDT (3/22)
Length of Visible Light 12h 59m
Length of Day
12h 11m
Waning Gibbous, 65% of the Moon is Illuminated
Mar 22
Waning Gibbous
Mar 23
Last Quarter
Mar 30
New
Apr 7
First Quarter
Apr 15
Full

Hourly Weather History & Observations

Time (CDT) Temp. Dew Point Humidity Pressure Visibility Wind Dir Wind Speed Gust Speed Precip Events Conditions
12:09 AM 60.8 °F 59.0 °F 94% 30.05 in 1.8 mi SW 3.5 mph - N/A   Overcast
12:20 AM 60.8 °F 59.0 °F 94% 30.06 in 0.8 mi SW 3.5 mph - N/A   Overcast
12:58 AM 59.0 °F 57.9 °F 96% 30.05 in 0.2 mi SW 4.6 mph - N/A Fog Fog
1:58 AM 57.9 °F 57.9 °F 100% 30.04 in 0.2 mi WSW 3.5 mph - N/A Fog Fog
2:58 AM 60.1 °F 59.0 °F 96% 30.04 in 0.5 mi Calm Calm - N/A Fog Fog
3:45 AM 60.8 °F 59.0 °F 94% 30.04 in 1.0 mi Calm Calm - N/A   Mist
3:58 AM 60.1 °F 59.0 °F 96% 30.04 in 1.5 mi Calm Calm - N/A   Overcast
4:07 AM 60.8 °F 59.0 °F 94% 30.05 in 2.0 mi Calm Calm - N/A   Overcast
4:17 AM 60.8 °F 59.0 °F 94% 30.05 in 3.0 mi Calm Calm - N/A   Overcast
4:53 AM 60.8 °F 59.0 °F 94% 30.05 in 2.5 mi Calm Calm - N/A   Overcast
4:58 AM 60.1 °F 59.0 °F 96% 30.04 in 2.0 mi Calm Calm - N/A   Overcast
5:58 AM 59.0 °F 57.9 °F 96% 30.06 in 2.5 mi Calm Calm - 0.00 in   Overcast
6:18 AM 59.0 °F 57.2 °F 94% 30.08 in 1.8 mi Calm Calm - N/A   Overcast
6:33 AM 59.0 °F 57.2 °F 94% 30.08 in 0.8 mi Calm Calm - N/A   Overcast
6:58 AM 59.0 °F 57.9 °F 96% 30.08 in 0.5 mi Calm Calm - N/A Fog Fog
7:58 AM 60.1 °F 59.0 °F 96% 30.09 in 0.2 mi Calm Calm - N/A Fog Fog
8:58 AM 60.1 °F 59.0 °F 96% 30.10 in 1.2 mi Calm Calm - N/A   Overcast
9:11 AM 60.8 °F 59.0 °F 94% 30.11 in 2.5 mi Calm Calm - N/A   Overcast
9:17 AM 60.8 °F 59.0 °F 94% 30.11 in 3.0 mi Calm Calm - N/A   Overcast
9:36 AM 62.6 °F 60.8 °F 94% 30.11 in 6.0 mi Calm Calm - N/A   Scattered Clouds
9:58 AM 68.0 °F 57.9 °F 70% 30.10 in 10.0 mi NNE 4.6 mph - N/A   Clear
10:58 AM 72.0 °F 54.0 °F 53% 30.08 in 10.0 mi Variable 4.6 mph - N/A   Clear
11:58 AM 73.0 °F 50.0 °F 44% 30.06 in 10.0 mi North 5.8 mph - N/A   Clear
12:58 PM 75.0 °F 46.0 °F 36% 30.03 in 10.0 mi Calm Calm - N/A   Clear
1:58 PM 75.9 °F 46.0 °F 35% 30.01 in 10.0 mi SSW 6.9 mph - N/A   Clear
2:58 PM 78.1 °F 46.9 °F 33% 30.00 in 10.0 mi Calm Calm - N/A   Clear
3:58 PM 79.0 °F 48.0 °F 34% 29.98 in 10.0 mi Calm Calm - N/A   Clear
4:58 PM 79.0 °F 46.9 °F 32% 29.98 in 10.0 mi Calm Calm - N/A   Clear
5:58 PM 79.0 °F 48.0 °F 34% 29.99 in 10.0 mi Calm Calm - N/A   Clear
6:58 PM 71.1 °F 54.0 °F 55% 30.02 in 10.0 mi SW 3.5 mph - N/A   Clear
7:58 PM 69.1 °F 57.0 °F 65% 30.04 in 10.0 mi SSW 6.9 mph - N/A   Clear
8:58 PM 66.9 °F 55.9 °F 68% 30.06 in 10.0 mi SW 5.8 mph - N/A   Clear
9:58 PM 64.0 °F 55.9 °F 75% 30.06 in 10.0 mi SW 4.6 mph - N/A   Clear
10:58 PM 61.0 °F 55.9 °F 83% 30.06 in 10.0 mi Calm Calm - N/A   Clear
11:58 PM 57.0 °F 54.0 °F 89% 30.04 in 9.0 mi Calm Calm - N/A   Clear